Weather reports worldwide

Advertisment
Gogerddan, United Kingdom (99150): temperature & dewpoint: 10.11.2018 10:00:00 - 16.11.2018 10:00:00 (GMT)Gogerddan, United Kingdom (99150): temperature -20cm & temperature -100cm: 10.11.2018 10:00:00 - 16.11.2018 10:00:00 (GMT)Gogerddan, United Kingdom (99150): precipitation: 10.11.2018 10:00:00 - 16.11.2018 10:00:00 (GMT)
Date & Time tt [°C] td [°C] tt -20cm [°C] tt -100cm [°C] rr [mm]
16.11.2018 10:00:00 - - - - -
16.11.2018 09:00:00 - - - - -
16.11.2018 08:00:00 - - - - -
16.11.2018 07:00:00 - - - - -
16.11.2018 06:00:00 11,3 8,9 - - 0,0
16.11.2018 05:00:00 11,1 9,2 - - 0,0
16.11.2018 04:00:00 10,1 9,0 - - 0,0
16.11.2018 03:00:00 - - - - -
16.11.2018 02:00:00 11,4 9,3 - - 0,0
16.11.2018 01:00:00 11,5 10,2 - - 0,0
16.11.2018 00:00:00 11,3 10,0 - - 0,0
15.11.2018 23:00:00 11,3 10,5 - - 0,0
15.11.2018 22:00:00 11,0 10,2 - - 0,2
15.11.2018 21:00:00 11,2 10,1 - - 0,0
15.11.2018 20:00:00 11,6 9,7 - - 0,0
15.11.2018 19:00:00 11,8 8,7 - - 0,0
15.11.2018 18:00:00 12,5 8,7 - - 0,0
15.11.2018 17:00:00 12,0 7,1 - - 0,0
15.11.2018 16:00:00 14,1 7,3 - - 0,0
15.11.2018 15:00:00 15,2 7,4 - - 0,0
15.11.2018 14:00:00 15,4 7,6 - - 0,0
15.11.2018 13:00:00 14,6 7,1 - - 0,0
15.11.2018 12:00:00 13,9 6,7 - - 0,0
15.11.2018 11:00:00 14,6 7,3 - - 0,0
15.11.2018 10:00:00 12,8 6,7 - - 0,0
15.11.2018 09:00:00 11,2 6,6 10,2 10,9 0,0
15.11.2018 08:00:00 8,0 5,2 - - 0,0
15.11.2018 07:00:00 8,7 5,9 - - 0,0
15.11.2018 06:00:00 9,6 5,9 - - 0,0
15.11.2018 05:00:00 10,1 6,5 - - 0,0
15.11.2018 04:00:00 10,2 6,5 - - 0,0
15.11.2018 03:00:00 9,6 5,8 - - 0,0
15.11.2018 02:00:00 9,3 5,7 - - 0,0
15.11.2018 01:00:00 9,5 5,6 - - 0,0
15.11.2018 00:00:00 9,4 5,7 - - 0,0
14.11.2018 23:00:00 9,3 6,0 - - 0,0
14.11.2018 22:00:00 9,4 5,7 - - 0,0
14.11.2018 21:00:00 9,7 5,7 - - 0,0
14.11.2018 20:00:00 10,3 5,9 - - 0,0
14.11.2018 19:00:00 10,4 6,1 - - 0,0
14.11.2018 18:00:00 11,1 6,1 - - 0,0
14.11.2018 17:00:00 11,7 6,7 - - 0,0
14.11.2018 16:00:00 12,3 6,8 - - 0,0
14.11.2018 15:00:00 12,4 6,8 - - 0,0
14.11.2018 14:00:00 12,7 7,2 - - 0,0
14.11.2018 13:00:00 12,6 7,5 - - 0,0
14.11.2018 12:00:00 12,3 7,4 - - 0,0
14.11.2018 11:00:00 12,0 7,7 - - 0,0
14.11.2018 10:00:00 11,5 7,8 - - 0,0
14.11.2018 09:00:00 11,3 8,3 10,2 10,9 0,0
14.11.2018 08:00:00 11,2 8,7 - - 0,0
14.11.2018 07:00:00 11,0 8,8 - - 0,0
14.11.2018 06:00:00 11,1 8,7 - - 0,0
14.11.2018 05:00:00 10,8 8,4 - - 0,0
14.11.2018 04:00:00 10,7 7,9 - - 0,0
14.11.2018 03:00:00 10,3 7,5 - - 0,2
14.11.2018 02:00:00 10,1 7,9 - - 0,4
14.11.2018 01:00:00 10,5 7,4 - - 0,0
14.11.2018 00:00:00 11,3 6,8 - - 0,0
13.11.2018 23:00:00 11,1 7,1 - - 0,0
13.11.2018 22:00:00 11,1 7,3 - - 0,0
13.11.2018 21:00:00 10,9 7,4 - - 0,0
13.11.2018 20:00:00 10,7 7,7 - - 0,0
13.11.2018 19:00:00 10,3 7,6 - - 0,0
13.11.2018 18:00:00 9,8 7,7 - - 0,2
13.11.2018 17:00:00 10,3 7,1 - - 0,0
13.11.2018 16:00:00 10,2 6,6 - - 0,0
13.11.2018 15:00:00 11,0 6,6 - - 0,0
13.11.2018 14:00:00 11,2 7,0 - - 0,0
13.11.2018 13:00:00 11,1 7,0 - - 0,0
13.11.2018 12:00:00 9,6 8,3 - - 0,2
13.11.2018 11:00:00 10,0 6,5 - - 0,0
13.11.2018 10:00:00 9,7 6,8 - - 0,0
13.11.2018 09:00:00 9,5 6,5 9,9 10,9 0,0
13.11.2018 08:00:00 9,1 5,6 - - 0,0
13.11.2018 07:00:00 9,3 5,8 - - 0,0
13.11.2018 06:00:00 9,3 5,7 - - 0,0
13.11.2018 05:00:00 9,5 5,7 - - 0,0
13.11.2018 04:00:00 9,6 5,5 - - 0,0
13.11.2018 03:00:00 9,5 5,4 - - 0,0
13.11.2018 02:00:00 9,4 5,3 - - 0,0
13.11.2018 01:00:00 9,6 5,5 - - 0,0
13.11.2018 00:00:00 9,4 5,9 - - 0,0
12.11.2018 23:00:00 7,7 6,3 - - 1,6
12.11.2018 22:00:00 7,4 5,3 - - 0,2
12.11.2018 21:00:00 7,6 4,7 - - 0,0
12.11.2018 20:00:00 7,6 5,1 - - 1,2
12.11.2018 19:00:00 8,6 6,1 - - 0,2
12.11.2018 18:00:00 9,1 5,9 - - 0,2
12.11.2018 17:00:00 8,9 5,9 - - 0,6
12.11.2018 16:00:00 9,8 5,9 - - 0,0
12.11.2018 15:00:00 10,9 6,2 - - 0,0
12.11.2018 14:00:00 11,3 6,2 - - 0,0
12.11.2018 13:00:00 10,0 7,5 - - 0,0
12.11.2018 12:00:00 11,3 7,1 - - 0,2
12.11.2018 11:00:00 9,8 6,8 - - 0,0
12.11.2018 10:00:00 10,3 7,4 - - 0,2
12.11.2018 09:00:00 9,2 6,6 9,9 11,0 0,0
12.11.2018 08:00:00 9,2 6,5 - - 0,0
12.11.2018 07:00:00 9,0 6,5 - - 0,0
12.11.2018 06:00:00 9,1 6,4 - - 0,0
12.11.2018 05:00:00 8,8 6,7 - - 0,0
12.11.2018 04:00:00 8,8 6,3 - - 0,0
12.11.2018 03:00:00 8,9 7,0 - - 0,2
12.11.2018 02:00:00 9,2 7,0 - - 0,2
12.11.2018 01:00:00 9,2 6,7 - - 0,0
12.11.2018 00:00:00 9,2 6,6 - - 0,0
11.11.2018 23:00:00 9,0 6,5 - - 0,0
11.11.2018 22:00:00 9,0 6,5 - - 0,0
11.11.2018 21:00:00 8,7 6,6 - - 0,2
11.11.2018 20:00:00 9,1 6,0 - - 0,0
11.11.2018 19:00:00 8,9 5,7 - - 0,0
11.11.2018 18:00:00 9,1 5,5 - - 0,2
11.11.2018 17:00:00 9,7 5,3 - - 0,0
11.11.2018 16:00:00 10,0 5,0 - - 0,0
11.11.2018 15:00:00 10,2 5,0 - - 0,0
11.11.2018 14:00:00 10,2 4,7 - - 0,0
11.11.2018 13:00:00 11,2 6,2 - - 0,0
11.11.2018 12:00:00 10,6 6,3 - - 0,0
11.11.2018 11:00:00 9,7 7,3 - - 0,4
11.11.2018 10:00:00 9,2 6,2 - - 0,0
11.11.2018 09:00:00 7,2 5,9 10,0 11,0 0,2
11.11.2018 08:00:00 6,5 5,6 - - 2,2
11.11.2018 07:00:00 6,9 6,2 - - 3,8
11.11.2018 06:00:00 7,4 6,0 - - 0,8
11.11.2018 05:00:00 7,4 6,3 - - 0,0
11.11.2018 04:00:00 7,6 6,3 - - 1,6
11.11.2018 03:00:00 8,4 5,7 - - 0,0
11.11.2018 02:00:00 7,8 5,8 - - 0,0
11.11.2018 01:00:00 7,7 5,7 - - 0,0
11.11.2018 00:00:00 7,8 5,5 - - 0,0
10.11.2018 23:00:00 8,1 5,3 - - 0,0
10.11.2018 22:00:00 8,0 5,3 - - 0,0
10.11.2018 21:00:00 8,4 6,0 - - 0,2
10.11.2018 20:00:00 6,2 4,9 - - 0,0
10.11.2018 19:00:00 6,3 5,0 - - 0,0
10.11.2018 18:00:00 6,3 4,5 - - 0,0
10.11.2018 17:00:00 8,3 5,5 - - 0,0
10.11.2018 16:00:00 9,4 7,3 - - 0,6
10.11.2018 15:00:00 10,7 7,2 - - 0,0
10.11.2018 14:00:00 10,5 6,6 - - 0,0
10.11.2018 13:00:00 10,1 6,5 - - 0,0
10.11.2018 12:00:00 9,5 6,5 - - 0,0
10.11.2018 11:00:00 9,6 7,0 - - 0,4
10.11.2018 10:00:00 8,0 5,8 - - 1,6

tt = temperature
td = dewpoint
tt -20cm = temperature -20cm
tt -100cm = temperature -100cm
rr = precipitation

Next stations